SCP
0 0 0 0 0 0 0 0 0 0 0 0 0 0 0 0 0 0 0 0 0 0 0 0 0 0 0 0 0 0 0 0 0 0 0 0 0 0 0 0 0 0 0 0 0 0 0 0 0
0 0 0 0 0 0 0 0 0 0 0 0 0 0 0 0 0 0 0 0 0 0 0 0 0 0 0 0 0 0 0 0 0 0 0 0 0 0 0 0 0 0 0 0 0 0 0 0 0
0 0 0 0 0 0 0 0 0 0 0 0 0 0 0 0 0 0 0 0 0 0 0 0 0 0 0 0 0 0 0 0 0 0 0 0 0 0 0 0 0 0 0 0 0 0 0 0 0
0 0 0 0 0 0 0 0 0 0 0 0 0 0 0 0 0 0 0 0 0 0 0 0 0 0 0 0 0 0 0 0 0 0 0 0 0 0 0 0 0 0 0 0 0 0 0 0 0
0 0 0 0 0 0 0 0 0 0 0 0 0 0 0 0 0 0 0 0 0 0 0 0 0 0 0 0 0 0 0 0 0 0 0 0 0 0 0 0 0 0 0 0 0 0 0 0 0
0 0 0 0 0 0 0 0 0 0 0 0 0 0 0 0 0 0 0 0 0 0 0 0 0 0 0 0 0 0 0 0 0 0 0 0 0 0 0 0 0 0 0 0 0 0 0 0 0
0 0 0 0 0 0 0 0 0 0 0 0 0 0 0 0 0 0 0 0 0 0 0 0 0 0 0 0 0 0 0 0 0 0 0 0 0 0 0 0 0 0 0 0 0 0 0 0 0
0 0 0 0 0 0 0 0 0 0 0 0 0 0 0 0 0 0 0 0 0 0 0 0 0 0 0 0 0 0 0 0 0 0 0 0 0 0 0 0 0 0 0 0 0 0 0 0 0
0 0 0 0 0 0 0 0 0 0 0 0 0 0 0 0 0 0 0 0 0 0 0 0 0 0 0 0 0 0 0 0 0 0 0 0 0 0 0 0 0 0 0 0 0 0 0 0 0
0 0 0 0 0 0 0 0 0 0 0 0 0 0 0 0 0 0 0 0 0 0 0 0 0 0 0 0 0 0 0 0 0 0 0 0 0 0 0 0 0 0 0 0 0 0 0 0 0
0 0 0 0 0 0 0 0 0 0 0 0 0 0 0 0 0 0 0 0 0 0 0 0 0 0 0 0 0 0 0 0 0 0 0 0 0 0 0 0 0 0 0 0 0 0 0 0 0
0 0 0 0 0 0 0 0 0 0 0 0 0 0 0 0 0 0 0 0 0 0 0 0 0 0 0 0 0 0 0 0 0 0 0 0 0 0 0 0 0 0 0 0 0 0 0 0 0
0 0 0 0 0 0 0 0 0 0 0 0 0 0 0 0 0 0 0 0 0 0 0 0 0 0 0 0 0 0 0 0 0 0 0 0 0 0 0 0 0 0 0 0 0 0 0 0 0
0 0 0 0 0 0 0 0 0 0 0 0 0 -0 -0 -0 0 0 0 0 0 0 0 0 0 0 0 0 0 0 0 0 0 0 0 0 0 0 0 0 0 0 0 0 0 0 0 0 0
0 0 0 0 0 0 0 0 0 0 0 0 -0 -0 -0 -0 -0 0 0 0 0 0 0 0 0 0 0 0 0 0 0 0 0 0 0 0 0 0 0 0 0 0 0 0 0 0 0 0 0
0 0 0 0 0 0 0 0 0 0 0 -0 -0 -0 -0 -0 -0 0 0 0 0 0 0 0 0 0 0 0 0 0 0 0 0 0 0 0 0 0 0 0 0 0 0 0 0 0 0 0 0
0 0 0 0 0 0 0 0 0 0 0 -0 -0 -0 -0 0 0 0 0 0 0 0 0 0 0 0 0 0 0 0 0 0 0 0 0 0 0 0 0 0 0 0 0 0 0 0 0 0 0
0 0 0 0 0 0 0 0 0 0 0 0 0 0 0 0 0 0 0 0 0 0 0 0 0 0 0 0 0 0 0 0 0 0 0 0 0 0 0 0 0 0 0 0 0 0 0 0 0
0 0 0 0 0 0 0 0 0 0 0 0 0 0 0 0 0 0 0 0 0 0 0 0 0 0 0 0 0 0 0 0 0 0 0 0 0 0 0 0 0 0 0 0 0 0 0 0 0
0 0 0 0 0 0 0 0 0 0 0 0 0 0 0 0 0 0 0 0 0 0 0 0 0 0 0 0 0 0 0 0 0 0 0 0 0 0 0 0 0 0 0 0 0 0 0 0 0
0 0 0 0 0 0 0 0 0 0 0 0 0 0 0 0 0 0 0 0 0 0 0 0 0 0 0 0 0 0 0 0 0 0 0 0 0 0 0 0 0 0 0 0 0 0 0 0 0
0 0 0 0 0 0 0 0 0 0 0 0 0 0 0 0 0 0 0 0 0 0 0 0 0 0 0 0 0 0 0 0 0 0 0 0 0 0 0 0 0 0 0 0 0 0 0 0 0
0 0 0 0 0 0 0 0 0 0 0 0 0 0 0 0 0 0 0 0 0 0 0 0 0 0 0 0 0 0 0 0 0 0 0 0 0 0 0 0 0 0 0 0 0 0 0 0 0
0 0 0 0 0 0 0 0 0 0 0 0 0 0 0 0 0 0 0 0 0 0 0 0 0 0 0 0 0 0 0 0 0 0 0 0 0 0 0 0 0 0 0 0 0 0 0 0 0
0 0 0 0 0 0 0 0 0 0 0 0 0 0 0 0 0 0 0 0 0 0 0 0 0 0 0 0 0 0 0 0 0 0 0 0 0 0 0 0 0 0 0 0 0 0 0 0 0
0 0 0 0 0 0 0 0 0 0 0 0 0 0 0 0 0 0 0 0 0 0 0 0 0 0 0 0 0 0 0 0 0 0 0 0 0 0 0 0 0 0 0 0 0 0 0 0 0
0 0 0 0 0 0 0 0 0 0 0 0 0 0 0 0 0 0 0 0 0 0 0 0 0 0 0 0 0 0 0 0 0 0 0 0 0 0 0 0 0 0 0 0 0 0 0 0 0
0 0 0 0 0 0 0 0 0 0 0 0 0 0 0 0 0 0 0 0 0 0 0 0 0 0 0 0 0 0 0 0 0 0 0 0 0 0 0 0 0 0 0 0 0 0 0 0 0
0 0 0 0 0 0 0 0 0 0 0 0 0 0 0 0 0 0 0 0 0 0 0 0 0 0 0 0 0 0 0 0 0 0 0 0 0 0 0 0 0 0 0 0 0 0 0 0 0
0 0 0 0 0 0 0 0 0 0 0 0 0 0 0 0 0 0 0 0 0 0 0 0 0 0 0 0 0 0 0 0 0 0 0 0 0 0 0 0 0 0 0 0 0 0 0 0 0
Wind_Speed
4 2 2 3 5 6 8 6 4 4 4 1 1 2 3 2 2 3 5 3 3 3 4 4 4 4 4 4 5 4 5 5 5 5 5 5 5 5 5 5 5 5 5 5 5 5 5 5 5
3 2 3 4 7 9 7 6 7 4 2 2 2 2 3 2 3 4 3 3 3 4 4 4 5 5 4 5 5 5 4 4 4 4 4 4 4 4 5 4 4 5 5 5 5 5 5 4 4
1 2 3 4 7 9 6 4 4 3 3 3 3 1 1 1 3 3 3 3 3 4 4 5 5 5 5 4 4 5 4 4 4 4 4 4 4 4 4 4 4 4 4 4 4 4 4 4 4
2 3 3 6 10 8 5 2 2 4 4 3 3 3 2 2 2 2 3 3 3 4 4 5 4 4 4 4 5 4 4 4 3 3 3 3 3 3 3 3 3 3 3 3 3 3 3 3 3
2 4 6 8 10 6 5 2 3 5 4 3 4 3 3 3 2 4 4 3 3 3 3 4 4 4 4 4 4 4 4 4 4 4 3 3 3 2 3 2 3 3 2 3 3 3 2 2 2
3 4 7 10 10 7 5 4 5 5 4 3 4 3 2 4 3 4 3 3 3 3 3 3 4 4 3 3 4 4 4 3 3 3 3 3 2 2 2 2 2 2 2 2 2 2 2 1 1
4 5 8 9 9 8 5 4 6 5 5 3 2 4 4 4 3 3 3 2 2 3 3 2 2 2 3 3 4 4 3 4 3 3 2 3 2 1 1 1 1 1 1 1 1 1 1 1 1
3 4 7 8 10 8 4 3 3 6 4 1 3 4 3 3 3 2 2 2 2 2 2 2 1 1 2 2 3 3 3 3 3 3 3 2 1 0 1 1 1 0 0 0 1 0 1 1 1
3 6 8 9 8 5 3 4 2 2 3 3 2 2 2 4 4 4 3 2 2 1 1 1 1 0 1 1 2 1 2 2 1 1 2 1 1 1 1 1 0 0 0 1 1 1 1 1 2
4 7 8 4 4 3 3 4 3 4 6 5 4 3 3 4 5 5 4 3 2 1 0 0 1 0 1 1 1 1 1 1 0 1 1 1 1 1 2 1 1 0 0 1 1 1 2 3 3
3 6 5 4 3 2 3 3 3 6 7 6 5 5 5 5 5 5 4 3 3 2 1 1 1 1 1 1 1 1 1 1 1 1 1 1 1 1 1 1 1 1 2 1 1 3 3 3 3
4 5 5 3 3 3 4 3 4 7 6 3 3 3 5 6 6 5 4 3 2 2 2 1 1 1 1 1 1 1 1 1 1 1 1 1 1 1 1 1 1 1 1 1 2 2 3 4 4
7 5 4 3 2 3 4 6 6 7 5 3 1 3 5 5 4 4 4 3 3 2 2 2 2 2 2 2 1 1 1 1 1 1 1 2 2 2 2 2 2 2 2 2 2 3 3 4 4
4 4 4 4 4 3 5 6 6 6 4 4 3 4 4 4 3 2 3 4 3 3 3 2 2 2 2 2 2 2 2 2 2 1 2 2 2 2 2 2 2 2 2 2 3 4 4 4 3
3 4 4 4 4 2 4 8 8 5 4 5 4 3 3 3 4 3 3 3 3 2 2 2 2 2 2 2 2 2 2 2 2 2 2 2 2 2 2 2 2 2 3 3 3 4 3 4 4
3 5 6 4 3 3 5 9 4 3 5 5 4 3 3 3 3 3 3 3 2 2 2 2 1 2 2 2 2 2 2 2 2 2 2 2 2 3 2 2 2 2 3 3 3 3 3 4 4
4 6 7 4 3 3 7 9 3 3 5 6 5 4 4 3 2 2 2 2 2 2 2 2 1 2 2 2 2 2 2 2 2 2 2 2 2 2 2 2 2 2 2 3 3 3 4 4 5
5 7 7 6 2 4 8 10 7 4 4 6 5 4 4 4 3 2 1 1 1 1 1 1 1 2 2 2 1 1 2 2 1 2 2 2 2 3 3 2 2 2 3 3 3 4 4 4 4
3 6 7 5 2 5 9 11 9 6 5 6 5 4 4 3 2 1 1 1 1 1 1 1 2 2 1 1 1 1 2 1 2 2 2 3 3 3 3 2 2 3 3 4 4 4 4 4 3
4 6 6 4 2 5 8 11 9 6 6 5 4 4 3 2 1 1 1 1 1 1 1 1 2 2 2 2 2 2 2 2 2 2 3 3 3 3 3 3 3 3 3 4 4 4 4 3 3
5 6 5 5 4 5 7 9 7 4 4 2 2 2 2 2 2 2 1 2 2 2 2 2 2 2 2 3 2 2 2 2 2 2 3 3 3 3 3 4 3 3 3 4 4 5 5 4 4
5 3 5 5 5 4 3 7 5 4 4 2 2 2 2 1 2 3 2 2 2 2 2 2 2 2 2 2 2 3 3 3 3 3 3 4 4 3 3 4 4 4 4 4 5 5 5 6 5
2 1 4 5 5 5 5 7 4 3 4 4 3 2 2 2 2 3 3 3 2 2 2 2 2 2 2 3 3 4 3 3 3 3 4 4 3 3 4 4 4 4 4 5 5 5 5 5 5
1 1 2 3 4 6 5 7 5 3 5 4 3 2 2 2 2 2 2 2 2 2 2 2 2 3 3 3 3 4 4 4 4 4 4 4 3 3 4 4 4 4 4 5 5 5 6 5 6
1 2 2 3 4 4 2 5 6 1 2 3 3 2 1 2 2 2 2 2 2 3 2 2 3 3 3 3 4 4 4 5 5 5 5 5 4 4 4 4 5 4 4 5 5 5 5 6 6
3 3 2 4 3 1 3 6 2 1 0 1 2 1 1 2 2 2 3 3 3 3 3 3 3 3 3 4 4 4 4 4 4 5 5 5 4 4 5 5 5 5 4 4 4 4 4 5 5
2 2 1 1 1 4 5 4 3 1 0 1 1 1 2 2 2 3 3 3 3 3 3 3 4 4 4 4 4 4 4 4 5 5 5 5 5 4 5 5 5 4 4 4 4 4 5 5 5
1 1 2 3 3 5 4 4 3 2 1 1 2 2 2 3 3 3 3 3 2 3 3 3 3 4 4 4 4 4 4 5 5 5 5 5 5 5 5 4 4 4 4 4 4 4 5 5 5
2 2 2 2 3 4 4 2 1 2 1 2 2 2 2 3 3 4 4 3 2 3 3 3 3 4 4 4 4 5 4 4 5 5 5 5 5 5 5 4 4 4 4 4 4 5 5 5 5
3 3 4 3 3 3 4 4 3 1 1 2 2 3 3 4 4 4 4 4 3 3 3 3 3 4 4 4 5 5 5 4 4 5 5 5 5 4 5 5 4 4 4 4 5 5 5 5 5
Wind_Direction
318 290 247 225 219 222 229 214 215 186 187 172 176 220 225 235 301 56 77 96 92 111 113 111 76 75 88 100 102 96 90 87 87 88 96 99 99 98 94 88 84 82 79 82 87 92 97 100 98
310 265 225 226 234 226 218 210 208 194 155 148 173 207 200 145 50 81 107 98 111 112 113 101 77 71 82 92 94 93 90 91 90 89 91 102 103 102 97 92 88 83 79 77 76 87 92 94 98
264 259 228 216 230 237 214 182 197 169 162 188 176 202 273 101 111 111 94 126 124 116 113 97 78 73 74 84 90 90 88 86 85 85 82 92 104 105 101 98 92 84 79 75 72 83 91 99 97
231 198 215 231 228 232 236 169 162 170 176 204 206 167 127 59 72 97 116 135 125 114 112 100 80 79 76 79 81 83 80 79 79 79 80 82 92 95 96 95 92 85 81 77 76 87 88 94 99
231 220 212 224 231 225 230 228 208 202 188 184 209 202 153 111 87 112 127 130 120 108 102 103 85 80 77 79 76 72 72 68 69 67 69 69 76 83 82 83 93 92 89 91 87 86 90 91 95
201 222 226 227 223 220 218 216 214 217 205 192 204 206 153 125 117 118 125 127 110 101 102 106 94 77 76 80 76 67 60 64 63 62 58 51 51 71 97 92 87 103 109 106 106 96 94 104 108
221 219 236 238 230 224 212 213 218 224 216 208 223 210 157 154 120 128 130 122 105 101 98 99 120 119 101 82 76 66 55 51 51 50 45 42 39 49 111 107 96 93 144 132 118 111 124 164 166
248 224 231 233 234 228 198 209 236 238 237 224 239 227 172 147 135 145 132 124 114 103 88 90 100 128 150 139 89 66 60 48 40 40 29 22 15 38 123 138 83 42 166 168 178 237 255 231 207
225 226 231 227 230 217 187 218 216 256 227 215 236 299 38 123 152 164 163 162 150 122 87 63 66 128 177 169 116 111 88 66 41 50 30 318 233 224 196 177 351 326 298 275 246 246 261 249 202
213 226 235 242 246 227 208 228 223 214 221 219 208 199 159 161 177 186 195 195 193 192 186 347 345 331 221 189 181 193 195 154 282 340 308 281 286 269 256 173 212 231 277 245 247 256 233 238 223
209 231 234 229 233 234 228 232 234 234 239 243 238 208 182 190 201 208 210 209 209 212 232 285 300 303 277 228 228 228 232 239 260 297 314 300 296 274 241 220 184 198 211 219 206 228 234 242 241
211 234 239 229 218 234 248 250 240 241 259 304 278 228 193 203 209 215 219 221 219 221 234 263 276 280 279 256 239 243 249 257 268 273 299 291 294 289 266 248 256 244 243 253 251 254 251 250 245
218 226 231 226 229 239 250 252 262 253 262 265 237 197 202 211 221 226 230 232 232 236 245 259 263 261 261 252 249 252 254 259 262 264 274 282 277 278 270 254 249 262 269 257 261 260 258 255 253
215 222 235 242 238 235 247 258 251 257 247 229 217 215 212 213 219 237 242 233 230 240 249 263 259 267 260 252 250 255 254 254 259 260 272 274 269 269 272 262 255 258 267 264 260 259 264 261 257
204 223 224 224 229 227 254 249 233 248 232 228 227 229 230 230 227 235 253 243 240 249 252 261 264 270 262 261 259 255 254 254 253 261 266 272 271 266 272 257 250 259 267 261 260 260 263 266 259
202 224 230 211 232 223 243 255 228 219 223 234 235 235 233 231 236 247 261 254 253 262 260 255 264 255 250 257 266 258 253 253 255 263 274 280 282 278 266 258 247 253 257 255 255 261 263 264 264
210 236 244 236 215 236 236 261 257 229 234 247 250 249 246 244 254 258 269 259 254 271 275 257 257 257 256 254 254 259 253 252 259 262 270 281 280 275 268 260 263 248 250 248 252 261 265 266 271
231 241 246 247 223 248 245 255 261 243 250 256 258 260 252 247 256 274 301 297 269 282 293 294 268 277 268 256 254 255 251 256 260 259 267 280 277 272 265 251 262 263 254 250 249 256 266 267 271
254 248 256 260 262 261 254 262 263 256 250 254 253 253 255 255 275 322 4 350 317 308 313 314 315 300 288 273 269 267 268 273 272 269 272 275 279 276 265 257 254 261 258 258 257 259 257 260 268
238 247 258 263 262 267 270 269 262 250 244 253 268 269 264 261 266 296 327 340 316 316 312 302 299 308 294 277 270 270 274 273 273 273 266 265 269 275 263 257 255 257 263 259 253 255 256 254 246
242 249 262 275 288 245 276 262 229 216 223 245 272 279 277 272 275 279 294 306 313 310 305 297 294 291 298 302 282 268 251 258 259 274 278 267 265 267 269 259 257 253 249 250 252 247 247 247 246
251 249 265 264 263 247 254 276 224 212 213 228 261 278 287 293 301 300 292 295 296 300 298 290 293 294 296 292 276 262 259 266 271 276 276 279 268 266 264 257 257 253 247 248 252 254 251 242 244
262 290 251 244 242 257 225 252 252 189 235 242 249 280 305 310 302 303 302 300 304 309 305 302 298 298 297 287 273 268 268 274 276 273 273 279 276 266 263 257 256 254 250 250 250 253 253 249 249
168 173 177 201 224 243 226 234 258 198 237 241 236 262 292 302 309 316 316 312 321 327 317 311 302 302 301 288 278 273 278 280 277 276 278 279 279 274 264 260 258 255 252 251 251 249 249 253 253
205 219 229 213 218 239 154 232 259 305 246 228 235 250 276 294 319 333 328 323 330 328 322 307 299 299 298 290 284 280 280 280 276 276 275 275 273 272 266 261 261 259 256 254 254 251 250 250 253
210 246 257 267 264 270 192 239 266 28 280 244 235 243 280 309 334 333 324 316 318 320 318 308 301 299 297 292 292 288 285 280 280 276 274 271 270 269 267 262 260 261 260 258 256 253 253 250 250
186 210 317 288 305 270 243 254 271 217 224 212 219 264 291 312 326 324 318 313 315 320 317 309 301 300 301 299 295 287 285 283 280 278 276 273 274 274 265 263 263 264 261 256 255 255 255 254 251
323 153 184 219 260 264 261 252 253 216 236 230 245 273 305 306 311 320 318 315 311 313 311 307 300 296 298 298 295 289 285 281 281 279 279 280 280 275 270 265 264 264 260 257 254 257 260 261 258
162 179 218 226 274 274 278 267 62 233 227 248 257 277 300 303 309 316 318 318 308 311 311 306 299 299 299 297 290 285 284 284 283 281 282 282 279 277 271 265 265 268 267 260 256 255 259 258 261
246 224 203 231 227 242 271 277 74 224 283 292 285 289 296 301 309 313 318 321 322 312 312 309 303 301 302 300 292 288 287 286 285 287 289 289 287 285 277 268 264 265 265 261 257 257 257 254 257